Previsão horária em Çermik

Hoje, 3 Agosto, Terça-feira

Tempo Temperatura Precipitação Vento Pressão Humidade
00:00 +31°C° 0 mm 2 m/s 688 mmHg 28%
01:00 +31°C° 0 mm 2 m/s 688 mmHg 29%
02:00 +30°C° 0 mm 2 m/s 688 mmHg 31%
03:00 +30°C° 0 mm 2 m/s 688 mmHg 32%
04:00 +29°C° 0 mm 2 m/s 688 mmHg 34%
05:00 +29°C° 0 mm 2 m/s 688 mmHg 35%
06:00 +29°C° 0 mm 2 m/s 688 mmHg 37%
07:00 +30°C° 0 mm 2 m/s 689 mmHg 34%
08:00 +32°C° 0 mm 2 m/s 689 mmHg 31%
09:00 +35°C° 0 mm 3 m/s 690 mmHg 28%
10:00 +36°C° 0 mm 2 m/s 690 mmHg 25%
11:00 +38°C° 0 mm 2 m/s 690 mmHg 22%
12:00 +39°C° 0 mm 2 m/s 690 mmHg 19%
13:00 +40°C° 0 mm 3 m/s 689 mmHg 18%
14:00 +42°C° 0 mm 3 m/s 689 mmHg 16%
15:00 +42°C° 0 mm 4 m/s 689 mmHg 14%
16:00 +41°C° 0 mm 4 m/s 689 mmHg 14%
17:00 +41°C° 0 mm 4 m/s 689 mmHg 14%
18:00 +41°C° 0 mm 5 m/s 689 mmHg 14%
19:00 +38°C° 0 mm 4 m/s 689 mmHg 15%
20:00 +36°C° 0 mm 3 m/s 689 mmHg 17%
21:00 +34°C° 0 mm 2 m/s 689 mmHg 18%
22:00 +34°C° 0 mm 2 m/s 689 mmHg 18%
23:00 +34°C° 0 mm 2 m/s 689 mmHg 19%

Amanhã, 4 Agosto, Quarta-feira

Tempo Temperatura Precipitação Vento Pressão Humidade
00:00 +32°C° 0 mm 2 m/s 689 mmHg 20%
01:00 +31°C° 0 mm 2 m/s 689 mmHg 21%
02:00 +31°C° 0 mm 2 m/s 689 mmHg 22%
03:00 +30°C° 0 mm 2 m/s 689 mmHg 23%
04:00 +30°C° 0 mm 2 m/s 690 mmHg 25%
05:00 +30°C° 0 mm 2 m/s 690 mmHg 27%
06:00 +29°C° 0 mm 2 m/s 690 mmHg 29%
07:00 +31°C° 0 mm 2 m/s 690 mmHg 27%
08:00 +34°C° 0 mm 2 m/s 691 mmHg 25%
09:00 +36°C° 0 mm 3 m/s 691 mmHg 23%
10:00 +38°C° 0 mm 2 m/s 691 mmHg 21%
11:00 +39°C° 0 mm 2 m/s 691 mmHg 18%
12:00 +40°C° 0 mm 1 m/s 691 mmHg 15%
13:00 +41°C° 0 mm 2 m/s 691 mmHg 14%
14:00 +42°C° 0 mm 2 m/s 690 mmHg 13%
15:00 +43°C° 0 mm 3 m/s 690 mmHg 12%
16:00 +43°C° 0 mm 3 m/s 690 mmHg 12%
17:00 +42°C° 0 mm 4 m/s 689 mmHg 13%
18:00 +42°C° 0 mm 4 m/s 689 mmHg 13%
19:00 +40°C° 0 mm 4 m/s 689 mmHg 15%
20:00 +37°C° 0 mm 3 m/s 690 mmHg 17%
21:00 +36°C° 0 mm 2 m/s 690 mmHg 20%
22:00 +35°C° 0 mm 2 m/s 690 mmHg 21%
23:00 +34°C° 0 mm 2 m/s 690 mmHg 23%

Depois de amanhã, 5 Agosto, Quinta-feira

Tempo Temperatura Precipitação Vento Pressão Humidade
00:00 +32°C° 0 mm 2 m/s 690 mmHg 24%
01:00 +31°C° 0 mm 2 m/s 689 mmHg 26%
02:00 +31°C° 0 mm 2 m/s 689 mmHg 27%
03:00 +30°C° 0 mm 2 m/s 689 mmHg 28%
04:00 +30°C° 0 mm 2 m/s 689 mmHg 30%
05:00 +30°C° 0 mm 2 m/s 689 mmHg 31%
06:00 +29°C° 0 mm 2 m/s 690 mmHg 32%
07:00 +31°C° 0 mm 2 m/s 690 mmHg 29%
08:00 +34°C° 0 mm 3 m/s 690 mmHg 26%
09:00 +36°C° 0 mm 3 m/s 691 mmHg 23%
10:00 +38°C° 0 mm 3 m/s 690 mmHg 21%
11:00 +39°C° 0 mm 3 m/s 690 mmHg 18%
12:00 +41°C° 0 mm 2 m/s 690 mmHg 16%
13:00 +41°C° 0 mm 2 m/s 690 mmHg 15%
14:00 +42°C° 0 mm 2 m/s 689 mmHg 14%
15:00 +42°C° 0 mm 2 m/s 689 mmHg 12%
16:00 +40°C° 0.1 mm 3 m/s 689 mmHg 17%
17:00 +37°C° 0.1 mm 4 m/s 689 mmHg 22%
18:00 +35°C° 0.1 mm 5 m/s 689 mmHg 27%
19:00 +34°C° 0.1 mm 4 m/s 689 mmHg 27%
20:00 +34°C° 0.1 mm 3 m/s 688 mmHg 28%
21:00 +32°C° 0.1 mm 2 m/s 688 mmHg 29%
22:00 +32°C° 0 mm 2 m/s 689 mmHg 29%
23:00 +31°C° 0 mm 2 m/s 689 mmHg 30%

6 Agosto, Sexta-feira

Tempo Temperatura Precipitação Vento Pressão Humidade
00:00 +31°C° 0 mm 2 m/s 689 mmHg 31%
01:00 +30°C° 0 mm 2 m/s 689 mmHg 32%
02:00 +29°C° 0 mm 2 m/s 688 mmHg 33%
03:00 +29°C° 0 mm 2 m/s 688 mmHg 34%
04:00 +29°C° 0 mm 2 m/s 688 mmHg 34%
05:00 +29°C° 0 mm 2 m/s 688 mmHg 34%
06:00 +29°C° 0 mm 2 m/s 688 mmHg 34%
07:00 +31°C° 0 mm 2 m/s 688 mmHg 30%
08:00 +32°C° 0 mm 2 m/s 689 mmHg 27%
09:00 +35°C° 0 mm 2 m/s 689 mmHg 23%
10:00 +37°C° 0 mm 2 m/s 689 mmHg 21%
11:00 +38°C° 0 mm 2 m/s 689 mmHg 19%
12:00 +39°C° 0 mm 2 m/s 689 mmHg 17%
13:00 +38°C° 0.1 mm 3 m/s 688 mmHg 20%
14:00 +36°C° 0.1 mm 4 m/s 688 mmHg 23%
15:00 +34°C° 0.1 mm 6 m/s 688 mmHg 27%
16:00 +35°C° 0 mm 4 m/s 687 mmHg 25%
17:00 +36°C° 0 mm 3 m/s 687 mmHg 22%
18:00 +37°C° 0 mm 2 m/s 687 mmHg 20%
19:00 +35°C° 0 mm 2 m/s 687 mmHg 24%
20:00 +32°C° 0 mm 2 m/s 688 mmHg 28%
21:00 +31°C° 0 mm 3 m/s 688 mmHg 32%
22:00 +30°C° 0 mm 2 m/s 688 mmHg 34%
23:00 +29°C° 0 mm 2 m/s 688 mmHg 35%

7 Agosto, Sábado

Tempo Temperatura Precipitação Vento Pressão Humidade
00:00 +28°C° 0 mm 2 m/s 688 mmHg 37%
01:00 +28°C° 0 mm 2 m/s 687 mmHg 37%
02:00 +28°C° 0 mm 2 m/s 687 mmHg 37%
03:00 +28°C° 0 mm 2 m/s 687 mmHg 37%
04:00 +28°C° 0 mm 2 m/s 687 mmHg 37%
05:00 +28°C° 0 mm 2 m/s 687 mmHg 36%
06:00 +28°C° 0 mm 1 m/s 687 mmHg 36%
07:00 +30°C° 0 mm 2 m/s 688 mmHg 32%
08:00 +32°C° 0 mm 2 m/s 688 mmHg 27%
09:00 +35°C° 0 mm 2 m/s 689 mmHg 23%
10:00 +37°C° 0 mm 3 m/s 689 mmHg 20%
11:00 +38°C° 0 mm 3 m/s 688 mmHg 17%
12:00 +39°C° 0 mm 3 m/s 688 mmHg 14%
13:00 +41°C° 0 mm 4 m/s 688 mmHg 13%
14:00 +41°C° 0 mm 4 m/s 688 mmHg 12%
15:00 +41°C° 0 mm 4 m/s 687 mmHg 11%
16:00 +41°C° 0 mm 4 m/s 687 mmHg 11%
17:00 +41°C° 0 mm 4 m/s 687 mmHg 11%
18:00 +41°C° 0 mm 4 m/s 687 mmHg 10%
19:00 +38°C° 0 mm 4 m/s 687 mmHg 14%
20:00 +36°C° 0 mm 4 m/s 688 mmHg 17%
21:00 +34°C° 0 mm 4 m/s 688 mmHg 20%
22:00 +31°C° 0 mm 3 m/s 688 mmHg 23%
23:00 +30°C° 0 mm 2 m/s 688 mmHg 27%

8 Agosto, Domingo

Tempo Temperatura Precipitação Vento Pressão Humidade
00:00 +29°C° 0 mm 2 m/s 688 mmHg 31%
01:00 +28°C° 0 mm 1 m/s 688 mmHg 32%
02:00 +28°C° 0 mm 1 m/s 688 mmHg 33%
03:00 +27°C° 0 mm 1 m/s 688 mmHg 34%
04:00 +27°C° 0 mm 1 m/s 689 mmHg 35%
05:00 +27°C° 0 mm 1 m/s 689 mmHg 37%
06:00 +26°C° 0 mm 1 m/s 689 mmHg 38%
07:00 +28°C° 0 mm 1 m/s 690 mmHg 34%
08:00 +30°C° 0 mm 1 m/s 690 mmHg 29%
09:00 +32°C° 0 mm 1 m/s 691 mmHg 25%
10:00 +34°C° 0 mm 1 m/s 691 mmHg 22%
11:00 +37°C° 0 mm 2 m/s 691 mmHg 19%
12:00 +38°C° 0 mm 3 m/s 691 mmHg 17%
13:00 +40°C° 0 mm 4 m/s 691 mmHg 15%
14:00 +40°C° 0 mm 5 m/s 691 mmHg 14%
15:00 +41°C° 0 mm 6 m/s 691 mmHg 12%
16:00 +40°C° 0 mm 5 m/s 691 mmHg 13%
17:00 +40°C° 0 mm 5 m/s 691 mmHg 14%
18:00 +38°C° 0 mm 4 m/s 691 mmHg 14%
19:00 +37°C° 0 mm 4 m/s 691 mmHg 17%
20:00 +35°C° 0 mm 3 m/s 691 mmHg 19%
21:00 +33°C° 0 mm 3 m/s 691 mmHg 22%
22:00 +31°C° 0 mm 2 m/s 691 mmHg 24%
23:00 +31°C° 0 mm 2 m/s 691 mmHg 27%
Mostrar mais

Necessitamos do seu Consentimento

A Meteoprog e os seus Fornecedores de Serviços podem armazenar e aceder a dados pessoais como cookies, identificadores do dispositivo ou outras tecnologias semelhantes existentes no seu dispositivo e processar estes dados para personalizar conteúdos e anúncios, assim como funcionalidades nas redes sociais e análise de tráfego.

  • Armazenar e/ou aceder a informações no seu dispositivo

    Os cookies, identificadores do dispositivo ou outras informações podem ser armazenados ou acedidos no seu dispositivo, para os fins acima indicados.

  • Anúncios e conteúdos personalizados, medição de anúncios e conteúdos, dados sobre o público-alvo e desenvolvimento de produtos

    Os anúncios e os conteúdos podem ser personalizados com base num perfil. Podem ser adicionados dados adicionais para uma maior personalização dos anúncios e dos conteúdos. A eficácia dos anúncios e dos conteúdos pode ser medida. Podem ser obtidas informações sobre o público que visualizou os anúncios e os conteúdos. Estes dados podem ser usados para desenvolver ou melhorar sistemas, softwares ou a experiência do utilizador.

Ao clicar em "Eu concordo”, permitirá o uso de cookies, identificadores do dispositivo e web beacons mencionados ou outras tecnologias semelhantes. As configurações do navegador do seu dispositivo podem ser alteradas.

Para certos fins, podem ser invocados interesses legítimos ao invés de consentimento. Pode ler mais informação sobre este assunto na nossa Política de Privacidade e Cookies.